星链-31900 (STARLINK-31900 )

导读 | 星芒AI

STARLINK-31900 是 SpaceX Starlink 卫星互联网项目中的一颗低轨卫星,属于第三代星链卫星(v1.5 或 v2 版本)。该卫星于2023年发射,部署在约550公里高度的近地轨道,旨在为全球用户提供高速、低延迟的互联网服务。它采用先进推进系统和激光通信技术,支持更高效的网络连接。作为星链星座的一部分,STARLINK-31900 有助于扩大覆盖范围,提升网络性能,并推动偏远地区的数字接入。

基本信息
目录编号:
59942
目录名称:
STARLINK-31900
国际标识:
2024-106W
轨道中心:
EARTH
卫星名称:
星链-31900
卫星全名:
星链-31900 (STARLINK-31900 )
卫星状态:
在轨 (已飞行567 天)
发射日期:
2024-06-01 UTC
国别 :
美国 (US)
星等 :
--
轨道信息
数据来源 国际轨道数据
星历时间: 2025-12-19T19:58:46+0800
15小时前
查看轨道信息
半长轴: 6858.148km
偏心率: 0.0000543
轨道倾角: 43.002°
近地点辐角 350.152°
升交点赤经 64.977°
平近点角 9.932°
近地点: 479.638km
远地点: 480.384km
周期: 94.204分钟
每日圈数: 15.285955
详细信息
固有亮度:
5
最大亮度:
1.5
卫星平台:
Starlink v2.0 mini
覆盖范围:
全球
运营商:
太空探索技术公司
运营商所在国:
美国
制造商(研发单位):
太空探索技术公司
制造商所在国:
美国
使用方式:
暂无
卫星简介
星链(Starlink)计划是由太空探索技术公司(SpaceX)提出的一个巨型低轨卫星互联网星座项目,计划在2019年至2024年间在太空搭建由约1.2万颗卫星组成的“星链”网络,其中1584颗将部署在地球上空550千米处的近地轨道,并从2020年开始工作。该卫星仍在工作。
2D轨道图
3D轨道图
轨道高度分析图
轨道倾角分析图
轨道综合分析图
查看轨道综合分析图